LIBC

Crotone Airport

Airport
ICAO code
LIBC
IATA Code
CRV
Summary
ICAO Region
EUR
ICAO Territory
Location

Crotone, Calabria

Serving
Crotone
Elevation
521 ft
Coordinates
38° 59' 50" N , 17° 4' 47" E
KCC
Metar
LIBC 150950Z 04011KT 360V060 CAVOK 35/11 Q1012

Crotone-Sant'Anna Airport is a minor Italian domestic airport serving Crotone in Calabria.

Climatology

Warm mediterranean climate (Köppen climate classification Csa)

Runways

Designator Length Width Surface Rops
17/35 2000 45 ASP Yes/Yes

Airport map

Aerial View

SKYbrary Partners:

Safety knowledge contributed by: